RÉSULTATS    Semi Marathon de Montargis - Édition du 15/03/2015

738 participants - 157 Femmes - 581 Hommes
210 licenciés (28%) - 528 non-licenciés (72%)

Temps moyen : 01:43:33


    Page / 30




Pos. Temps Nom - Prénom Club Dossard Catégorie km/h Tps Reel
276 01:37:24 GALLIOT Guillaume ASFAS 7247 V1M (97 / 220) 12.9 01:37:17
277 01:37:37 GUERIN Alexandre 1100 SEM (96 / 182) 12.9 01:37:07
278 01:37:39 LEDOUX Annie CS MONTEREAU 1321 V1F (8 / 63) 12.9 01:37:24
279 01:37:40 GASTREIN Jimmy SPORT ET AMITIE MONTCORBON 1185 SEM (97 / 182) 12.9 01:37:32
280 01:37:45 LEGOFF Nicolas 1655 V1M (98 / 220) 12.9 01:37:32
281 01:37:48 CHAUSSIN Philippe 1105 V1M (99 / 220) 12.9 01:37:41
282 01:37:53 BANSARD Arnaud 1168 ESM (3 / 10) 12.9 01:37:39
283 01:37:56 FLEURY Thierry AO NIVERNAISE 1291 V1M (100 / 220) 12.9 01:37:40
284 01:37:58 THIBAULT Thierry 1104 V1M (101 / 220) 12.9 01:37:49
285 01:38:01 MOTTIN Franck J3 AMILLY 1548 V1M (102 / 220) 12.9 01:37:42
286 01:38:07 CORNET Christophe 1508 V1M (103 / 220) 12.9 01:37:51
287 01:38:07 JEANSON Julien 1258 SEM (98 / 182) 12.9 01:37:56
288 01:38:08 CAILLAT Nicolas 1176 SEM (99 / 182) 12.9 01:37:43
289 01:38:10 BOURGOIN Franck 1524 SEM (100 / 182) 12.8 01:37:56
290 01:38:10 DONAT Christophe 1214 V1M (104 / 220) 12.8 01:38:07
291 01:38:10 GRAILLOT Stephane RUN AMAZONE 1375 V1M (105 / 220) 12.8 01:37:57
292 01:38:11 ZEIMER Karine RUN AMAZONE 1203 V1F (9 / 63) 12.8 01:37:58
293 01:38:12 GILLON Clement 1045 SEM (101 / 182) 12.8 01:37:44
294 01:38:15 SALIN Frederic GIEN ATHLE MARATHON 1460 V1M (106 / 220) 12.8 01:37:44
295 01:38:18 CORDONIN Johnny 1262 V2M (53 / 132) 12.8 01:38:09
296 01:38:19 GUENEGOU Alain S/L CJF FLEURY LES AUBRAIS 1582 V3M (10 / 33) 12.8 01:38:09
297 01:38:20 BALTZINGER Christophe 1201 V1M (107 / 220) 12.8 01:38:12
298 01:38:26 PATURANGE Nicolas ASV RUNNERS VIENNOIS 1639 V1M (108 / 220) 12.8 01:38:05
299 01:38:27 BONY Christian 1170 V3M (11 / 33) 12.8 01:38:17
300 01:38:28 MUGUET Eric USM MONTARGIS 1243 V2M (54 / 132) 12.8 01:38:21